Total_Precipitation_Accumulation
1.19 1.44 1.79 2.20 2.54 2.78 3.13 3.29 3.55 3.84 3.99 3.97 3.74 3.54 3.42 3.52 3.45 3.10 2.80 2.72 2.55 2.44 2.58 2.61 2.48 2.31 2.17 2.03 1.93 1.85 1.79 1.81 1.85 1.80 1.64 1.49 1.30 1.10 0.97 0.89 0.82 0.74 0.66
1.05 1.31 1.72 1.95 2.20 2.49 2.73 3.04 3.17 3.52 3.67 3.58 3.58 3.50 3.48 3.51 3.56 3.44 3.19 3.04 2.90 2.67 2.55 2.56 2.56 2.48 2.35 2.24 2.18 2.11 2.05 1.93 1.90 1.90 1.90 1.84 1.77 1.42 1.09 1.00 0.97 0.89 0.84
0.89 1.11 1.47 1.79 1.93 2.21 2.55 2.70 2.84 3.13 3.46 3.59 3.81 3.94 3.93 3.75 3.57 3.46 3.42 3.28 3.22 3.04 2.73 2.60 2.62 2.59 2.49 2.37 2.32 2.29 2.30 2.30 2.21 2.02 2.13 2.03 1.77 1.50 1.27 1.08 1.01 0.97 0.94
0.83 0.98 1.12 1.41 1.65 1.84 2.29 2.64 2.85 3.04 3.26 3.66 3.79 3.73 3.57 3.34 3.11 3.16 3.26 3.33 3.32 3.28 3.03 2.87 2.83 2.72 2.59 2.51 2.53 2.50 2.49 2.53 2.52 2.39 2.17 1.99 1.73 1.63 1.48 1.23 1.08 1.04 0.98
0.92 0.97 1.04 1.20 1.40 1.60 2.00 2.43 2.70 3.05 3.31 3.48 3.61 3.73 3.52 3.24 3.16 3.15 3.16 3.13 3.13 3.19 3.18 3.04 3.07 2.96 2.81 2.69 2.70 2.71 2.71 2.67 2.63 2.52 2.38 2.28 2.02 1.75 1.66 1.47 1.24 1.21 1.12
0.95 0.94 1.01 1.16 1.35 1.49 1.72 2.14 2.44 2.62 2.95 3.29 3.39 3.48 3.47 3.39 3.29 3.10 3.03 3.05 3.05 3.07 3.13 3.15 3.09 3.05 3.01 2.90 2.82 2.78 2.76 2.72 2.64 2.57 2.43 2.36 2.28 2.05 1.93 1.75 1.48 1.44 1.35
0.90 0.91 1.00 1.14 1.35 1.52 1.66 1.83 2.05 2.21 2.44 2.75 2.97 3.07 3.21 3.29 3.16 3.00 2.83 2.81 2.84 2.83 2.87 2.96 3.02 3.01 2.96 2.99 2.97 2.92 2.81 2.74 2.70 2.60 2.48 2.36 2.22 2.10 2.15 2.13 1.85 1.63 1.46
0.87 0.90 0.93 1.01 1.18 1.39 1.58 1.66 1.79 1.92 2.10 2.30 2.48 2.70 2.90 3.09 3.09 2.98 2.77 2.66 2.61 2.60 2.73 2.77 2.74 2.77 2.83 2.89 2.94 2.90 2.76 2.66 2.58 2.49 2.40 2.35 2.21 2.16 2.21 2.34 2.46 2.31 1.90
0.85 0.87 0.88 0.92 1.06 1.20 1.40 1.51 1.63 1.75 1.84 1.99 2.17 2.41 2.57 2.69 2.75 2.83 2.75 2.66 2.58 2.52 2.49 2.51 2.50 2.45 2.50 2.63 2.76 2.76 2.66 2.58 2.47 2.36 2.29 2.27 2.19 2.18 2.21 2.34 2.58 2.85 2.62
0.83 0.81 0.86 0.92 1.03 1.09 1.23 1.40 1.50 1.59 1.65 1.75 1.85 2.00 2.21 2.43 2.52 2.63 2.57 2.49 2.50 2.51 2.41 2.28 2.26 2.23 2.23 2.31 2.43 2.45 2.41 2.41 2.33 2.23 2.15 2.06 2.01 2.06 2.12 2.21 2.31 2.50 2.62
0.88 0.88 0.92 1.01 1.10 1.09 1.16 1.34 1.44 1.57 1.63 1.65 1.70 1.75 1.83 1.99 2.18 2.37 2.46 2.36 2.39 2.43 2.39 2.24 2.17 2.12 2.05 2.07 2.12 2.10 2.14 2.18 2.17 2.17 2.10 1.94 1.83 1.90 1.94 1.97 2.04 2.10 2.23
0.87 0.93 1.00 1.01 1.04 1.14 1.22 1.31 1.39 1.52 1.63 1.68 1.68 1.72 1.75 1.78 1.91 2.01 2.22 2.27 2.35 2.34 2.38 2.30 2.18 2.08 1.99 1.94 1.96 1.92 1.89 1.89 1.91 1.92 1.97 1.90 1.79 1.77 1.80 1.87 1.84 1.79 1.79
0.89 0.88 0.97 1.03 1.03 1.10 1.27 1.37 1.42 1.49 1.56 1.67 1.72 1.71 1.67 1.64 1.68 1.80 1.94 2.02 2.11 2.15 2.20 2.29 2.22 2.07 1.98 1.89 1.83 1.78 1.75 1.72 1.67 1.70 1.77 1.81 1.83 1.80 1.77 1.77 1.74 1.69 1.67
0.89 0.86 0.91 0.98 1.02 1.05 1.16 1.26 1.36 1.38 1.49 1.61 1.72 1.75 1.70 1.65 1.59 1.68 1.80 1.88 1.93 2.00 1.98 2.05 2.16 2.18 2.11 2.00 1.90 1.83 1.77 1.73 1.65 1.61 1.67 1.70 1.70 1.64 1.60 1.65 1.61 1.63 1.70
0.85 0.86 0.88 0.92 0.96 0.92 0.93 1.03 1.17 1.27 1.34 1.50 1.67 1.73 1.77 1.82 1.84 1.76 1.75 1.78 1.82 1.89 1.91 1.91 2.00 2.07 2.12 2.09 2.00 1.92 1.87 1.84 1.81 1.71 1.66 1.66 1.73 1.65 1.59 1.59 1.59 1.63 1.75
0.84 0.82 0.82 0.89 0.92 0.90 0.91 0.93 1.01 1.15 1.21 1.33 1.47 1.58 1.68 1.80 1.95 1.96 1.90 1.86 1.82 1.84 1.91 1.91 1.95 1.99 2.01 2.24 2.23 2.03 1.95 1.89 1.78 1.68 1.55 1.55 1.67 1.66 1.66 1.63 1.61 1.69 1.83
0.82 0.80 0.81 0.87 0.86 0.86 0.90 0.94 0.94 1.05 1.16 1.20 1.25 1.38 1.55 1.64 1.76 1.96 2.05 1.98 1.94 1.99 2.00 2.04 2.07 2.06 2.14 2.25 2.09 2.03 1.86 1.81 1.69 1.55 1.45 1.40 1.39 1.50 1.39 1.45 1.53 1.54 1.64
0.75 0.78 0.81 0.86 0.83 0.81 0.86 0.88 0.88 0.95 1.10 1.18 1.24 1.36 1.46 1.55 1.69 1.88 2.04 2.11 2.10 2.17 2.17 2.15 2.15 2.13 2.14 2.18 2.04 2.00 1.81 1.70 1.57 1.45 1.34 1.30 1.28 1.31 1.42 1.50 1.57 1.45 1.36
0.76 0.78 0.84 0.89 0.84 0.83 0.91 0.92 0.88 0.93 1.03 1.13 1.21 1.28 1.40 1.50 1.62 1.79 1.95 2.05 2.11 2.18 2.21 2.11 2.02 1.94 1.93 1.99 1.86 1.86 1.75 1.74 1.60 1.47 1.39 1.34 1.26 1.39 1.61 1.69 1.70 1.50 1.30
0.75 0.79 0.82 0.83 0.82 0.89 0.96 0.99 1.00 0.99 1.09 1.14 1.18 1.19 1.30 1.43 1.52 1.64 1.79 1.93 2.02 2.04 2.00 1.94 1.85 1.75 1.71 1.82 1.73 1.74 1.74 1.75 1.61 1.50 1.44 1.51 1.43 1.54 1.68 1.65 1.68 1.57 1.31
0.70 0.78 0.85 0.90 0.93 1.00 1.05 1.06 1.07 1.10 1.14 1.16 1.19 1.19 1.24 1.37 1.46 1.47 1.54 1.66 1.74 1.75 1.72 1.64 1.64 1.62 1.62 1.67 1.61 1.59 1.62 1.68 1.67 1.60 1.49 1.45 1.65 1.72 1.75 1.66 1.47 1.46 1.50
0.68 0.77 0.87 0.94 0.97 1.01 1.06 1.06 1.11 1.18 1.17 1.16 1.19 1.23 1.27 1.30 1.36 1.36 1.36 1.39 1.44 1.51 1.55 1.47 1.45 1.51 1.56 1.59 1.61 1.63 1.67 1.70 1.65 1.55 1.39 1.41 1.68 1.70 1.66 1.54 1.54 1.65 1.60
0.71 0.74 0.80 0.86 0.91 1.00 1.10 1.14 1.14 1.16 1.18 1.18 1.20 1.23 1.24 1.28 1.33 1.35 1.33 1.35 1.38 1.44 1.51 1.42 1.38 1.38 1.38 1.46 1.63 1.63 1.69 1.70 1.59 1.50 1.56 1.59 1.63 1.58 1.53 1.58 1.59 1.54 1.45
0.73 0.73 0.72 0.77 0.86 0.95 1.03 1.09 1.05 1.05 1.09 1.16 1.19 1.21 1.19 1.23 1.29 1.33 1.34 1.38 1.45 1.44 1.42 1.37 1.32 1.28 1.25 1.22 1.34 1.51 1.58 1.64 1.60 1.60 1.64 1.60 1.55 1.54 1.54 1.62 1.59 1.47 1.48
0.74 0.71 0.71 0.74 0.82 0.86 0.93 1.02 1.04 1.00 1.03 1.07 1.10 1.13 1.16 1.21 1.30 1.35 1.41 1.47 1.50 1.55 1.56 1.42 1.32 1.31 1.31 1.29 1.43 1.54 1.54 1.62 1.69 1.72 1.62 1.53 1.50 1.52 1.49 1.44 1.44 1.47 1.57
0.69 0.67 0.66 0.69 0.73 0.75 0.83 0.91 0.98 1.02 1.04 1.05 1.05 1.10 1.13 1.20 1.27 1.32 1.42 1.53 1.54 1.53 1.53 1.51 1.42 1.34 1.37 1.43 1.48 1.51 1.60 1.71 1.79 1.76 1.66 1.53 1.44 1.43 1.42 1.40 1.40 1.42 1.50